Change the Weather History Date:

Thursday, August 8, 2013

  Actual Average (KMAI) Record (KMAI)
Temperature  
Mean Temperature 86 °F 82 °F  
Max Temperature 95 °F 91 °F 100 °F (2007)
Min Temperature 78 °F 73 °F 69 °F (2002)
Degree Days  
Heating Degree Days 0    
Month to date heating degree days  
Since 1 June heating degree days  
Since 1 July heating degree days  
Cooling Degree Days 22    
Month to date cooling degree days  
Year to date cooling degree days  
Since 1 June cooling degree days  
Growing Degree Days 36 (Base 50)    
Moisture  
Dew Point 77 °F    
Average Humidity 83    
Maximum Humidity 94    
Minimum Humidity 53    
Precipitation  
Precipitation 0.00 in 0.20 in 0.51 in (1999)
Month to date precipitation 1.71  
Year to date precipitation 34.61  
Sea Level Pressure  
Sea Level Pressure 29.99 in    
Wind  
Wind Speed 3 mph (East)    
Max Wind Speed 17 mph    
Max Gust Speed 22 mph    
Visibility 8 miles    
Events Rain , Thunderstorm    
T = Trace of Precipitation, MM = Missing Value Source: NWS Daily Summary

Daily Weather History Graph

Daily Weather History Graph

Search for Another Location

Airport or City:

Trip Planner

Search our weather history database for the weather conditions in past years. The results will help you decide how hot, cold, wet, or windy it might be!

Date:

Astronomy

Aug. 08, 2013 Rise Set
Actual Time 7:00 AM EDT 8:27 PM EDT
Civil Twilight 6:34 AM EDT 8:53 PM EDT
Nautical Twilight 6:03 AM EDT 9:24 PM EDT
Astronomical Twilight 5:31 AM EDT 9:56 PM EDT
Moon 8:35 AM EDT (8/8) 9:18 PM EDT (8/8)
Length of Visible Light 14h 18m
Length of Day
13h 27m
Waxing Crescent, 3% of the Moon is Illuminated
Aug 8
Waxing Crescent
Aug 14
First Quarter
Aug 20
Full
Aug 28
Last Quarter
Sep 5
New

Hourly Weather History & Observations

Time (EDT) Temp. Heat Index Dew Point Humidity Pressure Visibility Wind Dir Wind Speed Gust Speed Precip Events Conditions
12:15 AM 80.6 °F 88.1 °F 78.8 °F 94% 30.00 in 10.0 mi Calm Calm - N/A Rain Light Rain
12:35 AM 80.6 °F 88.1 °F 78.8 °F 94% 29.99 in 7.0 mi Calm Calm - N/A   Clear
12:55 AM 80.6 °F 87.1 °F 77.0 °F 89% 29.99 in 7.0 mi Calm Calm - N/A   Clear
1:15 AM 80.6 °F 87.1 °F 77.0 °F 89% 29.99 in 10.0 mi Calm Calm - N/A   Clear
1:35 AM 80.6 °F 88.1 °F 78.8 °F 94% 29.99 in 10.0 mi Calm Calm - N/A   Clear
1:55 AM 78.8 °F - 77.0 °F 94% 29.98 in 7.0 mi Calm Calm - N/A   Clear
2:15 AM 78.8 °F - 77.0 °F 94% 29.97 in 7.0 mi Calm Calm - N/A   Clear
2:35 AM 78.8 °F - 77.0 °F 94% 29.97 in 7.0 mi Calm Calm - N/A   Clear
2:55 AM 78.8 °F - 77.0 °F 94% 29.96 in 7.0 mi Calm Calm - N/A   Clear
3:15 AM 78.8 °F - 77.0 °F 94% 29.96 in 5.0 mi East 3.5 mph - N/A   Clear
3:35 AM 78.8 °F - 77.0 °F 94% 29.96 in 7.0 mi Calm Calm - N/A   Clear
3:55 AM 78.8 °F - 77.0 °F 94% 29.96 in 7.0 mi ENE 3.5 mph - N/A   Clear
4:15 AM 78.8 °F - 77.0 °F 94% 29.97 in 7.0 mi ENE 4.6 mph - N/A   Clear
4:35 AM 78.8 °F - 77.0 °F 94% 29.97 in 7.0 mi East 3.5 mph - N/A   Clear
4:55 AM 78.8 °F - 77.0 °F 94% 29.97 in 7.0 mi East 3.5 mph - N/A   Clear
5:15 AM 78.8 °F - 77.0 °F 94% 29.98 in 7.0 mi ENE 4.6 mph - N/A   Clear
5:35 AM 78.8 °F - 77.0 °F 94% 29.98 in 7.0 mi Calm Calm - N/A   Clear
5:55 AM 78.8 °F - 77.0 °F 94% 29.98 in 7.0 mi Calm Calm - N/A   Clear
6:15 AM 78.8 °F - 77.0 °F 94% 29.98 in 7.0 mi NE 3.5 mph - N/A   Clear
6:35 AM 78.8 °F - 77.0 °F 94% 29.98 in 5.0 mi East 4.6 mph - N/A   Clear
6:55 AM 78.8 °F - 77.0 °F 94% 29.99 in 5.0 mi ENE 5.8 mph - N/A   Clear
7:15 AM 78.8 °F - 77.0 °F 94% 29.98 in 3.0 mi East 3.5 mph - N/A   Mist
7:35 AM 78.8 °F - 77.0 °F 94% 29.99 in 3.0 mi ENE 4.6 mph - N/A   Mist
7:55 AM 78.8 °F - 77.0 °F 94% 30.00 in 4.0 mi ENE 5.8 mph - N/A   Overcast
8:15 AM 78.8 °F - 77.0 °F 94% 30.00 in 4.0 mi ENE 5.8 mph - N/A   Overcast
8:35 AM 78.8 °F - 77.0 °F 94% 30.00 in 4.0 mi East 5.8 mph - N/A   Overcast
8:55 AM 78.8 °F - 77.0 °F 94% 30.01 in 4.0 mi East 8.1 mph - N/A   Overcast
9:15 AM 80.6 °F 87.1 °F 77.0 °F 89% 30.01 in 5.0 mi East 8.1 mph - N/A   Overcast
9:35 AM 80.6 °F 88.1 °F 78.8 °F 94% 30.01 in 5.0 mi East 8.1 mph - N/A   Overcast
9:55 AM 80.6 °F 88.1 °F 78.8 °F 94% 30.01 in 7.0 mi East 4.6 mph - N/A   Overcast
10:15 AM 82.4 °F 92.4 °F 78.8 °F 89% 30.01 in 7.0 mi ESE 4.6 mph - N/A   Overcast
10:35 AM 84.2 °F 96.1 °F 78.8 °F 84% 30.02 in 10.0 mi ESE 3.5 mph - N/A   Overcast
10:55 AM 86.0 °F 99.3 °F 78.8 °F 79% 30.02 in 10.0 mi Calm Calm - N/A   Mostly Cloudy
11:15 AM 86.0 °F 99.3 °F 78.8 °F 79% 30.02 in 10.0 mi East 4.6 mph - N/A   Scattered Clouds
11:35 AM 87.8 °F 102.5 °F 78.8 °F 75% 30.02 in 10.0 mi ENE 4.6 mph - N/A   Scattered Clouds
11:55 AM 89.6 °F 104.7 °F 78.8 °F 70% 30.02 in 10.0 mi Calm Calm - N/A   Scattered Clouds
12:15 PM 91.4 °F 107.2 °F 78.8 °F 66% 30.02 in 10.0 mi SE 4.6 mph - N/A   Scattered Clouds
12:35 PM 91.4 °F 107.2 °F 78.8 °F 66% 30.02 in 10.0 mi East 5.8 mph - N/A   Clear
12:55 PM 91.4 °F 105.1 °F 77.0 °F 63% 30.01 in 10.0 mi SE 3.5 mph - N/A   Scattered Clouds
1:15 PM 89.6 °F 102.2 °F 77.0 °F 66% 30.01 in 10.0 mi East 8.1 mph - N/A   Scattered Clouds
1:35 PM 95.0 °F 112.2 °F 78.8 °F 59% 30.00 in 10.0 mi East 5.8 mph - N/A   Scattered Clouds
1:55 PM 95.0 °F 109.7 °F 77.0 °F 56% 30.00 in 10.0 mi ESE 4.6 mph - N/A   Scattered Clouds
2:15 PM 95.0 °F 109.7 °F 77.0 °F 56% 30.00 in 10.0 mi SSE 4.6 mph - N/A   Clear
2:35 PM 95.0 °F 112.2 °F 78.8 °F 59% 29.99 in 10.0 mi NE 4.6 mph - N/A   Scattered Clouds
2:55 PM 95.0 °F 112.2 °F 78.8 °F 59% 29.98 in 10.0 mi East 4.6 mph - N/A   Scattered Clouds
3:15 PM 95.0 °F 109.7 °F 77.0 °F 56% 29.98 in 10.0 mi SE 10.4 mph - N/A   Mostly Cloudy
3:35 PM 95.0 °F 107.4 °F 75.2 °F 53% 29.97 in 10.0 mi SSE 6.9 mph - N/A   Scattered Clouds
3:55 PM 95.0 °F 109.7 °F 77.0 °F 56% 29.97 in 10.0 mi SSE 5.8 mph - N/A   Scattered Clouds
4:15 PM 95.0 °F 109.7 °F 77.0 °F 56% 29.97 in 10.0 mi SSE 5.8 mph - N/A   Scattered Clouds
4:35 PM 93.2 °F 107.2 °F 77.0 °F 59% 29.97 in 10.0 mi South 5.8 mph - N/A   Scattered Clouds
4:55 PM 95.0 °F 109.7 °F 77.0 °F 56% 29.97 in 10.0 mi SSW 11.5 mph 17.3 mph N/A   Scattered Clouds
5:15 PM 95.0 °F 112.2 °F 78.8 °F 59% 29.97 in 10.0 mi South 12.7 mph 16.1 mph N/A   Mostly Cloudy
5:35 PM 91.4 °F 107.2 °F 78.8 °F 66% 29.98 in 10.0 mi SSE 17.3 mph - N/A Thunderstorm Mostly Cloudy
5:55 PM 86.0 °F 96.9 °F 77.0 °F 74% 29.97 in 10.0 mi SSE 12.7 mph 21.9 mph N/A Thunderstorm Scattered Clouds
6:15 PM 84.2 °F 94.1 °F 77.0 °F 79% 29.98 in 10.0 mi SE 5.8 mph - N/A Thunderstorm Thunderstorm
6:35 PM 84.2 °F 96.1 °F 78.8 °F 84% 29.99 in 10.0 mi Calm Calm - N/A Thunderstorm Scattered Clouds
6:55 PM 84.2 °F 94.1 °F 77.0 °F 79% 29.98 in 10.0 mi NNE 4.6 mph - N/A Thunderstorm Clear
7:15 PM 82.4 °F 90.9 °F 77.0 °F 84% 29.99 in 10.0 mi ENE 4.6 mph - N/A   Clear
7:35 PM 80.6 °F 87.1 °F 77.0 °F 89% 29.99 in 10.0 mi ENE 4.6 mph - N/A   Clear
7:55 PM 80.6 °F 87.1 °F 77.0 °F 89% 30.00 in 10.0 mi East 3.5 mph - N/A   Clear
8:15 PM 80.6 °F 87.1 °F 77.0 °F 89% 30.00 in 10.0 mi Calm Calm - N/A   Clear
8:35 PM 80.6 °F 87.1 °F 77.0 °F 89% 30.00 in 10.0 mi Calm Calm - N/A   Clear
8:55 PM 80.6 °F 87.1 °F 77.0 °F 89% 30.00 in 10.0 mi Calm Calm - N/A   Clear
9:15 PM 80.6 °F 87.1 °F 77.0 °F 89% 30.01 in 10.0 mi Calm Calm - N/A   Clear
9:35 PM 80.6 °F 87.1 °F 77.0 °F 89% 30.02 in 10.0 mi ENE 4.6 mph - N/A   Clear
9:55 PM 78.8 °F - 77.0 °F 94% 30.03 in 10.0 mi ESE 4.6 mph - N/A   Clear
10:15 PM 78.8 °F - 77.0 °F 94% 30.03 in 10.0 mi Calm Calm - N/A   Clear
10:35 PM 78.8 °F - 77.0 °F 94% 30.03 in 10.0 mi Calm Calm - N/A   Clear
10:55 PM 78.8 °F - 77.0 °F 94% 30.02 in 10.0 mi ESE 5.8 mph - N/A   Clear
11:15 PM 78.8 °F - 77.0 °F 94% 30.01 in 10.0 mi SE 4.6 mph - N/A   Clear
11:35 PM 78.8 °F - 77.0 °F 94% 30.01 in 10.0 mi ESE 3.5 mph - N/A   Clear
11:55 PM 78.8 °F - 77.0 °F 94% 30.01 in 10.0 mi East 3.5 mph - N/A   Clear